When you browse on this site, cookies collect data to enhance your experience and personalize the content and advertising you see.
Visit our Privacy Policy to learn more. By continuing to use the site, you agree to this use of cookies and data.

Météo par heure à Mijas

Ce jour, 29 Septembre, Mardi

Heure Température Précipitation Vent Pression Humidité
00:00 +18°C° 0 mm 2 m/s 716 mmHg 46%
01:00 +18°C° 0 mm 2 m/s 716 mmHg 47%
02:00 +18°C° 0 mm 2 m/s 716 mmHg 47%
03:00 +18°C° 0 mm 2 m/s 716 mmHg 47%
04:00 +18°C° 0 mm 2 m/s 716 mmHg 48%
05:00 +17°C° 0 mm 2 m/s 716 mmHg 48%
06:00 +17°C° 0 mm 2 m/s 716 mmHg 49%
07:00 +19°C° 0 mm 2 m/s 716 mmHg 45%
08:00 +21°C° 0 mm 2 m/s 717 mmHg 41%
09:00 +24°C° 0 mm 2 m/s 717 mmHg 36%
10:00 +25°C° 0 mm 2 m/s 717 mmHg 35%
11:00 +25°C° 0 mm 3 m/s 717 mmHg 33%
12:00 +26°C° 0 mm 3 m/s 717 mmHg 31%
13:00 +26°C° 0 mm 3 m/s 717 mmHg 31%
14:00 +26°C° 0 mm 3 m/s 716 mmHg 31%
15:00 +26°C° 0 mm 3 m/s 715 mmHg 31%
16:00 +25°C° 0 mm 2 m/s 716 mmHg 35%
17:00 +23°C° 0 mm 2 m/s 716 mmHg 39%
18:00 +21°C° 0 mm 2 m/s 716 mmHg 44%
19:00 +20°C° 0 mm 2 m/s 716 mmHg 47%
20:00 +20°C° 0 mm 2 m/s 716 mmHg 50%
21:00 +19°C° 0 mm 2 m/s 716 mmHg 52%
22:00 +19°C° 0 mm 2 m/s 716 mmHg 54%
23:00 +18°C° 0 mm 2 m/s 716 mmHg 56%

Demain, 30 Septembre, Mercredi

Heure Température Précipitation Vent Pression Humidité
00:00 +18°C° 0 mm 2 m/s 716 mmHg 58%
01:00 +18°C° 0 mm 2 m/s 716 mmHg 57%
02:00 +18°C° 0 mm 2 m/s 716 mmHg 56%
03:00 +18°C° 0 mm 2 m/s 716 mmHg 56%
04:00 +18°C° 0 mm 1 m/s 716 mmHg 55%
05:00 +18°C° 0 mm 1 m/s 716 mmHg 54%
06:00 +18°C° 0 mm 1 m/s 716 mmHg 53%
07:00 +20°C° 0 mm 1 m/s 716 mmHg 49%
08:00 +21°C° 0 mm 1 m/s 716 mmHg 45%
09:00 +23°C° 0 mm 1 m/s 717 mmHg 41%
10:00 +24°C° 0 mm 1 m/s 717 mmHg 39%
11:00 +25°C° 0 mm 1 m/s 717 mmHg 37%
12:00 +26°C° 0 mm 1 m/s 716 mmHg 35%
13:00 +26°C° 0 mm 1 m/s 716 mmHg 36%
14:00 +26°C° 0 mm 2 m/s 716 mmHg 37%
15:00 +27°C° 0 mm 2 m/s 715 mmHg 38%
16:00 +26°C° 0 mm 2 m/s 715 mmHg 42%
17:00 +24°C° 0 mm 2 m/s 715 mmHg 47%
18:00 +23°C° 0 mm 2 m/s 715 mmHg 52%
19:00 +23°C° 0 mm 2 m/s 715 mmHg 50%
20:00 +21°C° 0 mm 2 m/s 715 mmHg 49%
21:00 +21°C° 0 mm 2 m/s 716 mmHg 48%
22:00 +20°C° 0 mm 3 m/s 715 mmHg 47%
23:00 +20°C° 0 mm 3 m/s 715 mmHg 46%

Après-demain, 1 Octobre, Jeudi

Heure Température Précipitation Vent Pression Humidité
00:00 +19°C° 0 mm 3 m/s 715 mmHg 45%
01:00 +19°C° 0 mm 3 m/s 715 mmHg 46%
02:00 +19°C° 0 mm 3 m/s 715 mmHg 48%
03:00 +18°C° 0 mm 3 m/s 714 mmHg 49%
04:00 +18°C° 0 mm 3 m/s 714 mmHg 51%
05:00 +18°C° 0 mm 3 m/s 714 mmHg 52%
06:00 +17°C° 0 mm 3 m/s 714 mmHg 54%
07:00 +19°C° 0 mm 4 m/s 715 mmHg 46%
08:00 +21°C° 0 mm 4 m/s 715 mmHg 38%
09:00 +23°C° 0 mm 4 m/s 715 mmHg 30%
10:00 +25°C° 0 mm 5 m/s 715 mmHg 28%
11:00 +27°C° 0 mm 5 m/s 715 mmHg 27%
12:00 +28°C° 0 mm 6 m/s 715 mmHg 25%
13:00 +28°C° 0 mm 7 m/s 714 mmHg 26%
14:00 +28°C° 0 mm 7 m/s 714 mmHg 26%
15:00 +28°C° 0 mm 7 m/s 714 mmHg 26%
16:00 +27°C° 0 mm 7 m/s 713 mmHg 31%
17:00 +24°C° 0 mm 6 m/s 713 mmHg 37%
18:00 +23°C° 0 mm 6 m/s 713 mmHg 42%
19:00 +22°C° 0 mm 5 m/s 713 mmHg 50%
20:00 +20°C° 0 mm 5 m/s 713 mmHg 59%
21:00 +19°C° 0 mm 5 m/s 714 mmHg 68%
22:00 +19°C° 0 mm 5 m/s 713 mmHg 70%
23:00 +17°C° 0 mm 5 m/s 713 mmHg 72%

2 Octobre, Vendredi

Heure Température Précipitation Vent Pression Humidité
00:00 +17°C° 0 mm 5 m/s 712 mmHg 74%
01:00 +17°C° 0 mm 4 m/s 712 mmHg 74%
02:00 +17°C° 0 mm 4 m/s 711 mmHg 74%
03:00 +15°C° 0 mm 4 m/s 711 mmHg 75%
04:00 +15°C° 0 mm 5 m/s 711 mmHg 75%
05:00 +15°C° 0 mm 5 m/s 711 mmHg 75%
06:00 +15°C° 0 mm 5 m/s 711 mmHg 76%
07:00 +16°C° 0 mm 5 m/s 711 mmHg 71%
08:00 +17°C° 0 mm 6 m/s 710 mmHg 66%
09:00 +19°C° 0 mm 6 m/s 710 mmHg 61%
10:00 +18°C° 0 mm 7 m/s 710 mmHg 60%
11:00 +20°C° 0 mm 7 m/s 709 mmHg 59%
12:00 +21°C° 0 mm 8 m/s 709 mmHg 59%
13:00 +20°C° 0.4 mm 8 m/s 708 mmHg 65%
14:00 +18°C° 0.4 mm 8 m/s 708 mmHg 72%
15:00 +17°C° 0.4 mm 9 m/s 707 mmHg 78%
16:00 +17°C° 0.3 mm 8 m/s 708 mmHg 72%
17:00 +16°C° 0.3 mm 7 m/s 708 mmHg 65%
18:00 +16°C° 0.3 mm 7 m/s 708 mmHg 59%
19:00 +15°C° 0 mm 7 m/s 709 mmHg 56%
20:00 +14°C° 0 mm 7 m/s 709 mmHg 53%
21:00 +12°C° 0 mm 7 m/s 710 mmHg 50%
22:00 +11°C° 0 mm 7 m/s 710 mmHg 53%
23:00 +11°C° 0 mm 7 m/s 710 mmHg 55%

3 Octobre, Samedi

Heure Température Précipitation Vent Pression Humidité
00:00 +10°C° 0 mm 7 m/s 710 mmHg 58%
01:00 +9°C° 0 mm 6 m/s 710 mmHg 61%
02:00 +9°C° 0 mm 6 m/s 710 mmHg 65%
03:00 +8°C° 0 mm 5 m/s 710 mmHg 69%
04:00 +8°C° 0 mm 5 m/s 711 mmHg 71%
05:00 +7°C° 0 mm 5 m/s 711 mmHg 74%
06:00 +7°C° 0 mm 4 m/s 711 mmHg 76%
07:00 +10°C° 0 mm 4 m/s 712 mmHg 69%
08:00 +10°C° 0 mm 5 m/s 712 mmHg 62%
09:00 +12°C° 0 mm 5 m/s 712 mmHg 55%
10:00 +14°C° 0 mm 5 m/s 712 mmHg 50%
11:00 +15°C° 0 mm 5 m/s 712 mmHg 45%
12:00 +17°C° 0 mm 5 m/s 712 mmHg 40%
13:00 +17°C° 0 mm 5 m/s 712 mmHg 37%
14:00 +19°C° 0 mm 5 m/s 712 mmHg 34%
15:00 +20°C° 0 mm 5 m/s 712 mmHg 31%
16:00 +19°C° 0 mm 5 m/s 712 mmHg 32%
17:00 +17°C° 0 mm 5 m/s 712 mmHg 33%
18:00 +16°C° 0 mm 5 m/s 712 mmHg 35%
19:00 +15°C° 0 mm 5 m/s 713 mmHg 39%
20:00 +14°C° 0 mm 5 m/s 713 mmHg 43%
21:00 +13°C° 0 mm 6 m/s 713 mmHg 47%
22:00 +13°C° 0 mm 5 m/s 714 mmHg 51%
23:00 +12°C° 0 mm 5 m/s 714 mmHg 55%

4 Octobre, Dimanche

Heure Température Précipitation Vent Pression Humidité
00:00 +12°C° 0 mm 4 m/s 714 mmHg 60%
01:00 +12°C° 0 mm 4 m/s 714 mmHg 61%
02:00 +11°C° 0 mm 4 m/s 713 mmHg 62%
03:00 +11°C° 0 mm 4 m/s 713 mmHg 63%
04:00 +10°C° 0 mm 4 m/s 714 mmHg 65%
05:00 +10°C° 0 mm 3 m/s 714 mmHg 67%
06:00 +10°C° 0 mm 3 m/s 714 mmHg 69%
07:00 +11°C° 0 mm 3 m/s 715 mmHg 61%
08:00 +13°C° 0 mm 4 m/s 715 mmHg 54%
09:00 +15°C° 0 mm 4 m/s 716 mmHg 46%
10:00 +17°C° 0 mm 4 m/s 716 mmHg 40%
11:00 +19°C° 0 mm 4 m/s 716 mmHg 34%
12:00 +20°C° 0 mm 5 m/s 716 mmHg 28%
13:00 +21°C° 0 mm 5 m/s 715 mmHg 30%
14:00 +21°C° 0 mm 5 m/s 715 mmHg 32%
15:00 +21°C° 0 mm 6 m/s 715 mmHg 34%
16:00 +21°C° 0 mm 5 m/s 715 mmHg 37%
17:00 +20°C° 0 mm 5 m/s 715 mmHg 41%
18:00 +19°C° 0 mm 4 m/s 715 mmHg 44%
19:00 +18°C° 0 mm 4 m/s 716 mmHg 49%
20:00 +16°C° 0 mm 5 m/s 716 mmHg 55%
21:00 +15°C° 0 mm 5 m/s 716 mmHg 61%
22:00 +15°C° 0 mm 4 m/s 716 mmHg 66%
23:00 +14°C° 0 mm 4 m/s 716 mmHg 72%
Voir plus